This demonstration page uses our WeatherBlox Daily Observations layout. Learn more.

Left ArrowRight Arrow

34.02893, -84.19858

Hourly Observations for February 1, 2020

Temp ( °F °C ) Dew Point ( °F °C ) Humidity (%) Winds ( mph kmh ) Pressure ( in mb ) Visibility ( mi km ) Precip ( " mm )
12:53 am 00:53 Cloudy 40 4.4 36 2.2 86 86 Calm 30.10 1019 10 16 0.00 0.00
1:02 am 01:02 Cloudy 40 4.4 36 2.2 86 86 VRB 3 6 30.09 1019 10 16 0.00 0.00
1:53 am 01:53 Cloudy 40 4.4 36 2.2 86 86 Calm 30.08 1019 10 16 0.00 0.00
2:53 am 02:53 Cloudy 39 3.9 36 2.2 89 89 ESE 3 6 30.07 1018 10 16 0.00 0.00
3:28 am 03:28 Cloudy 39 3.9 36 2.2 89 89 Calm 30.07 1018 10 16 0.00 0.00
3:53 am 03:53 Cloudy 39 3.9 37 2.8 93 93 Calm 30.08 1019 10 16 0.00 0.00
4:53 am 04:53 Cloudy 40 4.4 37 2.8 89 89 N 5 7 30.07 1018 10 16 0.00 0.00
5:53 am 05:53 Cloudy 40 4.4 37 2.8 89 89 N 3 6 30.07 1018 9 14 0.00 0.00
6:53 am 06:53 Cloudy 40 4.4 37 2.8 89 89 Calm 30.06 1018 8 13 0.00 0.00
7:53 am 07:53 Cloudy 40 4.4 38 3.3 93 93 Calm 30.06 1018 7 11 0.00 0.00
8:53 am 08:53 Cloudy 41 5 37 2.8 86 86 Calm 30.06 1018 8 13 0.00 0.00
9:53 am 09:53 Cloudy 42 5.6 38 3.3 85 85 WSW 8 13 30.06 1018 7 11 0.00 0.00
10:53 am 10:53 Cloudy 43 6.1 39 3.9 86 86 Calm 30.05 1018 7 11 0.00 0.00
11:35 am 11:35 Cloudy 45 7.2 40 4.4 83 83 WNW 7 11 30.04 1017 9 14 0.00 0.00
11:53 am 11:53 Cloudy 44 6.7 39 3.9 83 83 NW 8 13 30.04 1017 10 16 0.00 0.00
12:32 pm 12:32 Cloudy 46 7.8 40 4.4 79 79 W 7 11 30.02 1017 10 16 0.00 0.00
12:53 pm 12:53 Cloudy 45 7.2 40 4.4 83 83 WNW 8 13 30.02 1017 9 14 0.00 0.00
1:49 pm 13:49 Cloudy with Light Rain 45 7 43 6 93 93 W 8 13 29.99 1016 4 6 0.01 0.25
1:53 pm 13:53 Cloudy with Light Rain 45 7.2 42 5.6 90 90 WNW 8 13 29.99 1016 5 8 0.01 0.25
2:41 pm 14:41 Cloudy 47 8.3 43 6.1 86 86 W 7 11 29.97 1015 7 11 0.00 0.00
2:53 pm 14:53 Cloudy 47 8.3 42 5.6 83 83 W 7 11 29.98 1015 7 11 0.00 0.00
3:26 pm 15:26 Cloudy 47 8.3 41 5 80 80 WNW 10 17 29.97 1015 10 16 0.00 0.00
3:53 pm 15:53 Cloudy 46 7.8 40 4.4 79 79 WNW 10 17 29.99 1016 10 16 0.00 0.00
4:53 pm 16:53 Cloudy 47 8.3 41 5 80 80 NW 8 13 29.99 1016 10 16 0.00 0.00
5:53 pm 17:53 Cloudy 47 8.3 40 4.4 77 77 W 5 7 29.99 1016 10 16 0.00 0.00
9:53 pm 21:53 Mostly Cloudy 44 6.7 36 2.2 73 73 WNW 13 20 30.05 1018 10 16 0.00 0.00
10:53 pm 22:53 Cloudy 44 6.7 33 0.6 65 65 WNW 9 15 30.04 1017 10 16 0.00 0.00
11:53 pm 23:53 Mostly Cloudy 42 5.6 35 1.7 76 76 W 8 13 30.06 1018 10 16 0.00 0.00

Powered by AerisWeather